CZ-3C R/B (49012 NORAD) Tracking and Keplerian Element Data

This shows tracking and keplerian element data for the satellite.

Feedback or suggestion? Click here.




ElementValue
Catalog49012
NameCZ-3C R/B
Epoch Orbit67
Epoch Day216.86149218
Epoch Year2021
RAAN151.9913
Inclination17.6092
Eccentricity0.7503004
Argument of Perigee193.3151
Mean Anonmoly121.4787
Mean Motion2.03930559
Decay Rate0.00021515
L11 49012U 21063B 21216.86149218 .00021515 -15608-6 12362-2 0 9996
L22 49012 17.6092 151.9913 7503004 193.3151 121.4787 2.03930559 673

Live tracking and technical data element details for CZ-3C R/B (NORAD 49012). CZ-3C R/B can be tracked NOW for your location showing map with azimuth and elevation plus other details from your city location.

Track the satellite on the map from your city or location and see movement details for azimuth, elevation, latitude, longitude, range, height, and movement on the map or in text.







IsCatalogInMostPopularTable: catalog: 49012, numindb: 18
Update: records affected: 1



GetName: 49012 CZ-3C R/B

Hit Count: updated at: Sun, 26 Sep 2021 16:08:43 GMT